User: anonymous   Login
Location: Hawks Ness
(60.2333°N, 1.1667°W)
Time: 15:19:42
(UTC+00:00)
Language:

Cosmos 1066 Rocket - Orbit

View from above orbital plane
View from above orbital plane
View from above satellite
View from above satellite

Ground track
Ground track

The orbit data is extracted from the following two-line orbital elements,

1 11166U 78121B   19340.49535446  .00000036  00000-0  12074-4 0  9998
2 11166  81.2406  18.2878 0065811 213.5166 146.1836 14.13750840111428
Epoch (UTC): 06 December 2019 11:53:18
Eccentricity: 0.0065811
inclination: 81.2406°
perigee height: 799 km
apogee height: 894 km
right ascension of ascending node: 18.2878°
argument of perigee: 213.5166°
revolutions per day: 14.13750840
mean anomaly at epoch: 146.1836°
orbit number at epoch: 11142

The dashed part of the orbit path shows where the satellite is in the earth's shadow,  

DLR